SCP
-0 -0 -0 0 0 0 0 0 0 0 0 0 0 0 0 0 -0 0 0 -0 -0 -0 -0 -0 -0 -0 -0 -0 -0 -0 -0 -0 -0 -0 -0 0 0 0 0 0 0 0 0 -0 0 0 0 0 0
-0 -0 0 0 0 0 0 0 0 0 0 0 0 0 0 0 0 0 0 -0 -0 -0 -0 -0 -0 -0 -0 -0 -0 -0 -0 -0 -0 -0 -0 -0 0 0 0 0 0 0 0 0 0 0 0 0 0
0 -0 0 0 0 0 0 0 0 0 0 0 0 0 0 0 0 0 0 -0 -0 -0 -0 -0 -0 -0 -0 -0 -0 -0 -0 -0 -0 -0 -0 0 0 0 0 0 0 0 0 0 0 0 0 0 0
0 0 0 0 0 0 0 -0 0 -0 0 0 0 0 0 0 0 0 0 -0 -0 -0 -0 -0 -0 -0 -0 -0 -0 -0 -0 -0 -0 -0 0 0 0 0 0 0 0 0 0 0 0 0 0 0 0
0 0 0 0 0 0 0 -0 0 0 0 0 0 0 0 0 0 0 -0 -0 -0 -0 -0 -0 -0 -0 -0 -0 -0 -0 -0 -0 0 0 0 0 0 0 0 0 0 0 0 0 0 0 0 0 0
0 0 0 0 0 0 -0 0 0 0 0 0 0 0 0 0 0 0 0 -0 -0 -0 -0 -0 -0 -0 0 0 0 -0 -0 0 0 0 0 0 0 0 0 0 0 0 0 -0 0 0 0 0 0
0 0 0 0 0 0 0 0 0 0 0 0 0 0 0 0 0 0 0 -0 -0 -0 -0 -0 -0 -0 -0 -0 0 0 0 0 0 0 0 0 0 0 0 0 0 0 0 0 0 0 0 0 0
0 0 0 0 0 0 0 0 0 0 0 0 0 0 0 0 0 0 0 0 0 -0 -0 -0 -0 -0 -0 -0 0 0 0 0 0 0 0 0 0 0 0 0 0 0 0 0 0 0 0 0 0
0 0 0 0 0 0 0 0 0 0 0 0 0 0 0 0 0 0 0 0 0 0 -0 -0 -0 -0 -0 -0 -0 0 0 0 0 0 0 0 0 0 0 0 0 0 0 0 0 0 0 0 0
0 0 0 0 0 0 0 0 0 0 0 0 0 0 0 0 0 0 0 0 0 0 -0 0 -0 -0 -0 0 0 0 0 0 0 0 0 0 0 0 0 0 0 0 0 0 0 0 0 0 0
0 0 0 0 0 0 0 0 0 0 0 0 0 0 0 0 0 0 0 0 0 0 0 0 0 0 0 0 0 0 0 0 0 0 0 0 0 0 0 0 0 0 0 0 0 0 0 0 0
0 0 0 0 0 0 0 0 0 0 0 0 0 0 0 0 0 0 0 0 0 0 0 0 0 0 0 0 0 0 0 0 0 0 0 0 0 0 0 0 0 0 0 0 0 0 0 0 0
0 0 0 0 0 0 0 0 0 0 0 0 0 0 0 0 0 0 0 0 0 0 0 0 0 0 0 0 0 0 0 0 0 0 0 0 0 0 0 0 0 0 0 0 0 0 0 0 0
0 0 0 0 0 0 0 0 0 0 0 0 0 0 0 0 0 0 0 0 0 0 0 0 0 0 0 0 0 0 0 0 0 0 0 0 0 0 0 0 0 0 0 0 0 0 0 0 0
0 0 0 0 0 0 0 0 0 0 0 0 0 0 0 0 0 0 0 0 0 0 0 0 0 0 0 0 0 0 0 0 0 0 0 0 0 0 0 0 0 0 0 0 0 0 0 0 0
0 0 0 0 0 0 0 0 0 0 0 0 0 -0 -0 -0 -0 0 0 0 0 0 0 0 0 0 0 0 0 0 0 0 0 0 0 0 0 0 0 0 0 0 0 0 0 0 0 0 0
0 0 0 0 0 0 0 0 0 0 0 0 0 0 0 0 0 0 0 0 0 0 0 0 0 0 0 0 0 0 0 0 0 0 0 0 0 0 0 0 0 0 0 0 0 0 0 0 0
0 0 0 0 0 0 0 0 0 -0 0 0 0 0 0 0 0 0 0 0 0 0 0 0 0 0 0 0 0 0 0 0 0 0 0 0 0 0 0 0 0 0 0 0 0 0 0 0 0
0 0 0 0 0 0 0 0 0 0 0 0 0 -0 0 -0 0 0 0 0 0 0 0 0 0 0 0 0 0 0 0 0 0 0 0 0 0 0 0 0 0 0 0 0 0 0 0 0 0
0 0 0 0 0 0 0 0 0 -0 -0 0 -0 0 0 0 0 0 0 0 0 0 0 0 0 0 0 0 0 0 0 0 0 0 0 0 0 0 0 0 0 0 0 0 0 0 0 0 0
0 0 0 0 0 0 0 0 0 0 0 -0 0 0 0 0 0 0 0 0 0 0 0 0 0 0 0 0 0 0 0 0 0 0 0 0 0 0 0 0 0 0 0 0 0 0 0 0 0
0 0 0 0 0 0 0 -0 0 -0 -0 0 0 0 0 0 0 0 0 0 0 0 0 0 0 -0 -0 -0 0 0 0 0 0 0 0 0 0 0 0 0 0 0 0 0 0 0 0 0 0
0 0 0 0 0 0 0 0 0 0 0 0 0 0 0 0 0 0 0 0 0 0 0 0 0 0 -0 -0 -0 0 0 0 0 0 0 0 0 0 0 0 0 0 0 0 0 0 0 0 0
0 0 0 0 0 0 0 0 0 0 0 0 0 0 -0 0 0 0 0 0 0 0 0 0 0 0 0 -0 -0 -0 0 0 0 0 0 0 0 0 0 0 0 0 0 0 0 0 0 0 0
0 0 0 0 0 0 0 0 0 0 0 0 0 -0 0 0 0 0 0 0 0 0 0 0 0 0 0 0 -0 -0 -0 -0 -0 0 0 0 0 0 0 0 0 0 0 0 0 0 0 0 0
0 0 0 0 0 0 0 0 0 0 0 0 0 0 0 0 0 0 0 -0 0 0 0 0 0 -0 0 0 0 0 -0 -0 -0 -0 0 0 0 0 0 0 0 0 0 0 0 0 0 0 0
0 0 0 0 0 0 0 0 0 0 0 0 0 0 0 0 0 -0 0 0 0 0 0 -0 -0 -0 -0 0 0 0 -0 -0 -0 -0 -0 0 0 0 0 0 0 0 0 0 0 0 0 0 0
0 0 0 0 0 0 0 0 0 0 0 0 0 0 0 0 0 0 0 0 0 0 0 0 -0 -0 -0 -0 -0 -0 -0 -0 -0 -0 0 0 0 0 0 0 0 0 0 0 0 0 0 0 0
0 0 0 0 0 0 0 0 0 0 0 0 0 0 0 0 0 0 0 0 0 0 0 0 0 0 -0 -0 -0 -0 -0 0 0 -0 0 0 0 0 0 0 0 0 0 0 0 0 0 0 0
0 0 0 0 0 0 0 0 0 0 0 0 -0 -0 -0 0 0 0 0 0 0 0 0 0 0 0 0 0 -0 -0 -0 -0 0 0 0 0 0 0 0 0 0 0 0 0 0 0 0 0 0
Wind_Speed_500mb
11 10 8 6 8 6 5 3 3 7 5 3 7 8 5 10 8 10 5 11 18 34 38 42 43 40 39 38 34 32 29 26 24 25 25 23 23 21 18 17 17 18 17 13 11 11 11 10 9
9 7 6 3 7 6 6 1 6 2 2 5 11 10 11 11 18 17 12 15 19 32 38 40 41 41 38 38 36 33 30 28 27 26 24 24 21 21 21 20 21 21 20 16 15 16 15 13 12
5 3 5 3 4 5 6 6 1 2 6 10 7 9 7 5 10 8 11 16 22 31 37 39 39 42 38 35 36 33 28 27 28 27 30 30 25 23 22 21 22 24 20 19 18 17 15 14 12
2 0 4 8 13 14 10 10 12 18 5 12 9 12 11 18 8 14 11 18 25 31 38 39 40 43 45 41 36 34 34 34 31 27 37 28 24 21 22 23 24 23 22 20 18 14 12 10 7
5 1 5 6 10 9 14 18 13 8 6 8 10 6 10 16 19 23 17 17 27 32 38 39 41 44 47 44 42 41 38 35 38 40 32 28 25 23 23 25 24 22 20 19 15 10 6 5 4
2 1 6 9 7 9 13 10 9 10 7 7 10 14 9 10 12 16 20 19 28 32 37 39 43 44 45 46 45 45 44 45 40 33 31 29 28 26 25 24 22 21 20 17 12 10 8 6 5
3 4 6 9 12 9 4 2 6 6 7 11 6 9 7 12 10 11 14 21 30 36 39 41 44 47 46 47 48 48 49 46 41 33 33 31 29 27 25 23 23 22 22 19 17 15 12 10 9
5 4 5 9 6 9 6 5 6 10 7 8 12 10 7 13 16 17 17 22 31 38 41 45 48 52 53 54 53 52 51 51 45 38 34 32 30 29 28 26 26 24 23 21 19 17 15 13 12
9 8 11 9 11 5 9 9 7 11 19 16 22 30 31 37 32 29 27 30 36 41 45 48 52 55 58 58 58 56 54 52 49 41 37 34 34 32 31 30 28 27 27 24 20 18 16 14 12
12 8 11 8 11 11 9 12 17 13 28 40 35 43 45 44 40 38 38 39 43 47 48 51 54 56 60 62 61 59 59 57 52 46 44 41 40 37 35 34 34 32 30 27 23 21 17 15 13
9 13 13 15 28 19 16 19 16 24 28 43 40 30 27 41 46 50 50 51 48 47 54 54 56 58 62 65 64 65 65 62 57 53 50 47 45 43 43 44 42 41 37 34 31 27 24 20 17
12 28 28 13 13 11 16 18 23 31 62 61 51 48 40 55 60 58 58 55 51 54 53 58 60 62 62 66 68 68 68 65 63 60 57 54 53 51 49 48 46 44 42 39 35 31 27 24 20
18 25 25 27 24 30 34 51 40 49 66 64 54 53 50 45 47 50 52 55 54 59 59 63 63 66 66 67 70 73 73 71 68 66 64 61 61 58 55 54 52 50 47 44 40 36 32 27 23
7 20 32 27 33 32 23 60 9 40 33 43 41 48 46 47 41 40 41 44 49 53 56 62 68 68 71 72 74 75 77 76 75 74 71 69 68 64 62 60 59 57 53 49 45 40 36 30 26
11 24 31 33 21 18 21 26 30 52 34 44 40 36 48 58 60 61 60 59 55 48 48 58 62 69 76 78 79 82 81 81 81 78 77 76 74 70 67 67 65 62 58 54 51 47 41 36 31
12 9 18 7 14 6 20 34 40 20 13 32 52 62 61 64 59 57 61 62 60 58 53 50 58 65 72 79 83 87 89 89 89 87 85 84 81 78 76 75 71 68 66 63 59 53 47 42 36
11 22 26 21 11 5 22 25 28 24 35 69 74 70 68 63 48 45 44 44 39 40 45 49 53 57 65 77 86 90 93 96 95 96 94 91 87 86 84 81 77 75 73 71 66 60 55 49 42
24 20 21 19 15 16 26 41 41 70 56 69 75 74 56 50 46 32 24 21 20 22 25 33 44 53 61 71 84 94 99 102 103 104 101 97 96 93 91 89 85 82 82 79 72 67 63 55 49
28 33 42 42 38 38 42 41 41 60 63 72 72 65 39 33 29 27 22 19 19 17 17 19 28 35 48 64 78 88 101 102 108 110 107 105 102 101 99 97 94 92 91 84 79 75 68 61 57
32 38 42 39 30 11 36 48 46 45 50 61 61 51 38 34 22 23 36 42 46 47 43 36 32 34 42 49 59 74 84 95 103 105 116 116 113 112 110 106 104 101 97 93 89 86 79 74 67
31 28 37 44 39 30 23 25 5 21 18 42 16 33 25 16 26 48 47 46 45 42 40 45 52 52 43 43 51 61 72 87 92 101 113 120 120 118 114 110 110 105 103 102 98 93 90 83 77
31 22 29 29 12 17 17 23 21 23 24 23 21 25 31 35 39 43 47 51 48 44 41 42 42 44 42 37 40 51 65 76 85 90 94 102 113 121 121 117 116 112 109 107 102 99 96 92 88
11 4 7 9 18 20 12 15 4 7 10 13 28 32 29 33 34 40 45 47 41 39 42 41 40 39 39 38 35 39 51 61 67 72 83 90 94 100 120 123 122 121 117 114 112 110 108 104 98
1 7 9 5 8 18 20 18 5 4 6 8 4 19 29 34 40 41 42 45 46 47 44 42 38 35 36 37 36 35 40 46 53 63 73 79 84 89 98 116 126 126 123 121 118 114 111 107 104
7 11 14 12 9 19 8 8 14 18 12 11 7 29 41 41 44 47 49 51 54 53 51 50 46 43 40 38 37 37 39 41 47 51 61 68 78 82 88 93 111 131 132 126 123 121 116 112 110
20 21 14 12 20 33 22 18 11 14 8 26 44 41 51 57 51 53 56 57 55 50 48 46 50 52 50 48 46 42 40 41 44 47 56 65 74 79 74 84 90 112 134 131 129 125 121 116 115
9 16 6 5 7 14 23 38 30 10 18 36 42 46 49 47 49 54 59 59 60 58 59 60 56 54 57 56 56 55 51 44 44 43 52 61 67 75 75 78 83 93 112 135 134 131 127 124 120
15 6 6 6 11 18 26 41 29 23 14 16 23 31 37 43 48 49 50 54 55 57 61 64 65 61 60 61 60 58 57 55 52 50 50 55 62 71 74 75 78 85 94 113 135 135 133 129 126
9 11 11 8 10 12 25 31 5 19 13 12 16 22 27 29 31 34 39 42 47 53 56 57 61 65 66 66 66 64 63 61 55 52 52 55 57 63 71 72 76 83 89 99 113 133 135 136 131
12 22 28 16 17 19 26 38 36 16 19 16 11 8 9 15 22 28 31 37 42 47 52 55 58 60 63 63 65 64 63 66 67 61 56 52 59 57 64 71 73 81 87 93 103 112 133 137 134
Wind_Direction_500mb
263 279 302 316 252 254 256 187 300 253 231 217 168 218 286 300 278 325 311 193 182 190 199 197 199 200 196 194 195 196 197 201 203 202 204 208 208 212 220 222 227 240 259 278 285 285 288 288 280
266 278 308 268 259 274 71 162 222 353 263 218 221 232 251 275 254 276 269 213 184 188 196 200 200 201 197 198 199 202 204 206 207 206 207 220 219 223 229 230 228 238 252 268 270 275 280 277 272
271 244 268 286 259 306 338 195 173 308 265 219 239 242 274 239 245 235 246 221 199 191 194 198 202 203 199 202 205 206 205 205 209 214 224 234 235 224 224 225 230 240 250 255 265 272 278 278 271
202 353 56 259 270 273 265 301 288 297 251 216 252 259 254 243 252 235 262 231 210 200 195 199 199 201 202 200 206 209 203 211 220 221 231 238 229 220 230 236 241 248 256 261 263 270 271 269 270
174 222 238 260 269 276 263 286 282 274 288 211 201 257 252 269 260 263 260 238 220 209 202 203 202 201 202 205 208 206 207 212 222 227 235 232 236 235 238 243 250 252 254 258 266 261 244 223 205
204 258 256 283 289 278 280 269 274 253 244 217 225 256 254 281 292 275 252 236 221 215 212 209 206 205 205 203 203 202 207 215 229 232 231 236 241 243 242 241 241 245 250 250 237 225 218 223 223
241 240 289 283 288 286 249 216 232 277 251 240 231 258 255 282 294 304 257 234 219 215 216 216 212 211 209 208 209 211 218 226 241 234 233 235 238 239 236 238 238 236 231 219 210 211 212 218 222
145 238 225 222 249 275 207 222 231 248 291 237 207 237 265 285 289 283 260 241 225 222 221 219 218 215 213 215 218 221 225 231 242 238 236 234 234 232 233 234 233 226 221 216 215 215 213 215 218
160 224 245 244 196 217 197 242 210 254 268 245 228 242 267 282 284 274 260 245 234 231 228 225 222 220 219 220 223 226 229 235 241 236 233 232 231 231 233 231 228 220 217 216 215 216 215 220 223
215 232 249 233 223 250 257 245 283 262 266 262 262 259 270 270 271 269 259 256 248 239 236 231 227 225 223 224 224 228 233 235 236 233 233 228 228 228 229 227 224 222 222 222 222 225 230 235 235
195 242 244 236 245 260 271 268 259 265 272 266 270 284 269 276 268 271 265 260 260 255 240 238 233 230 228 228 226 227 230 233 234 233 233 229 229 229 225 223 220 219 220 222 221 223 226 231 235
243 243 246 266 244 255 268 283 259 246 261 276 285 282 273 278 277 277 274 267 261 255 249 242 238 235 234 232 231 232 233 234 234 233 232 230 229 230 229 228 224 221 219 219 220 222 224 224 226
238 262 259 259 263 265 272 266 268 265 269 282 282 285 289 277 276 278 275 269 261 255 250 245 240 238 237 235 236 234 236 236 237 235 233 230 230 231 231 229 227 224 222 222 223 223 222 221 220
318 280 284 278 261 250 247 272 266 273 285 283 287 290 290 289 287 288 282 281 275 267 256 248 244 242 240 239 238 239 239 239 236 236 235 232 232 232 231 230 228 226 224 223 223 224 224 223 224
294 297 295 266 266 232 216 269 235 267 282 283 290 295 295 292 289 289 290 289 290 288 272 255 248 243 242 242 239 240 239 240 241 239 236 234 233 233 232 231 229 228 227 226 225 225 224 224 224
276 259 285 295 180 205 194 270 285 287 294 291 292 291 286 283 282 287 284 283 282 280 278 266 251 246 245 245 242 242 241 240 241 239 237 235 233 233 232 231 229 228 227 225 224 225 225 225 225
231 269 257 291 234 135 206 278 276 282 296 288 287 284 282 287 294 287 290 298 291 284 275 270 266 259 252 248 245 245 244 243 242 241 239 237 234 232 233 233 230 229 227 226 225 223 224 225 226
274 260 255 260 284 251 271 269 282 288 287 280 281 279 285 292 298 315 322 330 325 313 292 278 271 264 259 256 249 245 245 245 243 242 242 240 237 235 232 232 231 229 227 226 226 225 224 221 223
286 274 279 276 283 297 289 293 291 286 283 274 277 282 295 295 312 337 11 34 30 9 343 313 291 282 266 259 253 249 248 246 245 245 244 241 240 238 235 233 231 228 229 228 226 225 224 223 221
262 272 275 281 278 290 294 300 286 283 270 277 278 293 295 308 3 24 60 57 46 34 23 8 343 310 289 274 266 262 257 255 253 249 245 243 240 238 235 234 232 230 227 226 226 226 222 219 221
255 266 278 283 304 286 305 283 276 284 288 274 309 289 324 343 67 81 61 41 37 38 36 30 19 8 343 304 281 270 258 258 257 256 254 249 244 241 239 237 236 232 230 228 226 226 224 223 219
280 288 274 282 294 289 4 296 308 294 283 317 322 28 50 65 82 59 39 37 38 39 33 20 9 1 357 339 305 283 273 269 269 264 261 257 252 245 242 238 237 235 232 231 230 228 227 224 223
261 8 276 273 269 300 251 269 10 298 292 69 47 73 46 67 66 37 36 39 38 32 17 11 7 4 359 356 342 311 291 282 276 271 268 266 263 255 244 239 239 237 234 233 232 228 225 225 225
100 277 256 220 268 262 263 225 142 112 110 48 74 48 62 41 33 32 27 27 28 27 20 15 9 4 359 358 360 347 322 304 284 277 272 272 268 264 255 246 240 239 237 234 234 233 230 229 227
226 309 319 280 228 274 97 276 276 295 223 295 34 71 49 43 32 29 25 24 23 18 13 14 14 8 3 359 356 352 343 318 302 287 277 273 272 269 266 258 247 240 238 236 235 235 232 230 230
241 235 211 277 276 290 306 257 289 238 317 42 48 41 34 30 26 20 17 16 17 13 10 6 3 4 3 358 351 344 339 326 312 303 293 284 278 278 274 267 260 249 242 238 236 236 235 232 231
167 208 208 207 315 277 256 267 288 339 79 45 39 33 28 23 18 11 5 3 358 355 355 356 352 350 349 351 349 348 339 324 313 306 297 292 285 283 280 272 265 258 250 242 238 236 235 233 232
214 121 201 121 227 239 267 288 283 254 70 45 26 25 14 7 2 357 353 348 346 344 341 339 341 343 344 345 348 353 348 338 323 306 296 295 292 288 283 276 269 262 255 249 242 239 237 235 233
214 223 224 293 207 250 279 278 26 98 88 46 37 21 11 12 10 6 359 354 350 346 345 342 338 339 338 336 341 346 348 349 342 329 313 298 291 288 285 279 273 266 259 253 247 241 239 238 235
280 260 244 241 248 234 241 251 256 106 107 52 57 73 28 12 3 357 354 349 353 353 349 349 347 341 339 339 337 337 338 341 344 342 334 318 297 290 285 281 275 269 261 256 251 246 240 239 238
Wind_Speed_850mb
11 10 8 6 8 6 5 3 3 7 5 3 7 8 5 10 8 10 5 11 18 34 38 42 43 40 39 38 34 32 29 26 24 25 25 23 23 21 18 17 17 18 17 13 11 11 11 10 9
9 7 6 3 7 6 6 1 6 2 2 5 11 10 11 11 18 17 12 15 19 32 38 40 41 41 38 38 36 33 30 28 27 26 24 24 21 21 21 20 21 21 20 16 15 16 15 13 12
5 3 5 3 4 5 6 6 1 2 6 10 7 9 7 5 10 8 11 16 22 31 37 39 39 42 38 35 36 33 28 27 28 27 30 30 25 23 22 21 22 24 20 19 18 17 15 14 12
2 0 4 8 13 14 10 10 12 18 5 12 9 12 11 18 8 14 11 18 25 31 38 39 40 43 45 41 36 34 34 34 31 27 37 28 24 21 22 23 24 23 22 20 18 14 12 10 7
5 1 5 6 10 9 14 18 13 8 6 8 10 6 10 16 19 23 17 17 27 32 38 39 41 44 47 44 42 41 38 35 38 40 32 28 25 23 23 25 24 22 20 19 15 10 6 5 4
2 1 6 9 7 9 13 10 9 10 7 7 10 14 9 10 12 16 20 19 28 32 37 39 43 44 45 46 45 45 44 45 40 33 31 29 28 26 25 24 22 21 20 17 12 10 8 6 5
3 4 6 9 12 9 4 2 6 6 7 11 6 9 7 12 10 11 14 21 30 36 39 41 44 47 46 47 48 48 49 46 41 33 33 31 29 27 25 23 23 22 22 19 17 15 12 10 9
5 4 5 9 6 9 6 5 6 10 7 8 12 10 7 13 16 17 17 22 31 38 41 45 48 52 53 54 53 52 51 51 45 38 34 32 30 29 28 26 26 24 23 21 19 17 15 13 12
9 8 11 9 11 5 9 9 7 11 19 16 22 30 31 37 32 29 27 30 36 41 45 48 52 55 58 58 58 56 54 52 49 41 37 34 34 32 31 30 28 27 27 24 20 18 16 14 12
12 8 11 8 11 11 9 12 17 13 28 40 35 43 45 44 40 38 38 39 43 47 48 51 54 56 60 62 61 59 59 57 52 46 44 41 40 37 35 34 34 32 30 27 23 21 17 15 13
9 13 13 15 28 19 16 19 16 24 28 43 40 30 27 41 46 50 50 51 48 47 54 54 56 58 62 65 64 65 65 62 57 53 50 47 45 43 43 44 42 41 37 34 31 27 24 20 17
12 28 28 13 13 11 16 18 23 31 62 61 51 48 40 55 60 58 58 55 51 54 53 58 60 62 62 66 68 68 68 65 63 60 57 54 53 51 49 48 46 44 42 39 35 31 27 24 20
18 25 25 27 24 30 34 51 40 49 66 64 54 53 50 45 47 50 52 55 54 59 59 63 63 66 66 67 70 73 73 71 68 66 64 61 61 58 55 54 52 50 47 44 40 36 32 27 23
7 20 32 27 33 32 23 60 9 40 33 43 41 48 46 47 41 40 41 44 49 53 56 62 68 68 71 72 74 75 77 76 75 74 71 69 68 64 62 60 59 57 53 49 45 40 36 30 26
11 24 31 33 21 18 21 26 30 52 34 44 40 36 48 58 60 61 60 59 55 48 48 58 62 69 76 78 79 82 81 81 81 78 77 76 74 70 67 67 65 62 58 54 51 47 41 36 31
12 9 18 7 14 6 20 34 40 20 13 32 52 62 61 64 59 57 61 62 60 58 53 50 58 65 72 79 83 87 89 89 89 87 85 84 81 78 76 75 71 68 66 63 59 53 47 42 36
11 22 26 21 11 5 22 25 28 24 35 69 74 70 68 63 48 45 44 44 39 40 45 49 53 57 65 77 86 90 93 96 95 96 94 91 87 86 84 81 77 75 73 71 66 60 55 49 42
24 20 21 19 15 16 26 41 41 70 56 69 75 74 56 50 46 32 24 21 20 22 25 33 44 53 61 71 84 94 99 102 103 104 101 97 96 93 91 89 85 82 82 79 72 67 63 55 49
28 33 42 42 38 38 42 41 41 60 63 72 72 65 39 33 29 27 22 19 19 17 17 19 28 35 48 64 78 88 101 102 108 110 107 105 102 101 99 97 94 92 91 84 79 75 68 61 57
32 38 42 39 30 11 36 48 46 45 50 61 61 51 38 34 22 23 36 42 46 47 43 36 32 34 42 49 59 74 84 95 103 105 116 116 113 112 110 106 104 101 97 93 89 86 79 74 67
31 28 37 44 39 30 23 25 5 21 18 42 16 33 25 16 26 48 47 46 45 42 40 45 52 52 43 43 51 61 72 87 92 101 113 120 120 118 114 110 110 105 103 102 98 93 90 83 77
31 22 29 29 12 17 17 23 21 23 24 23 21 25 31 35 39 43 47 51 48 44 41 42 42 44 42 37 40 51 65 76 85 90 94 102 113 121 121 117 116 112 109 107 102 99 96 92 88
11 4 7 9 18 20 12 15 4 7 10 13 28 32 29 33 34 40 45 47 41 39 42 41 40 39 39 38 35 39 51 61 67 72 83 90 94 100 120 123 122 121 117 114 112 110 108 104 98
1 7 9 5 8 18 20 18 5 4 6 8 4 19 29 34 40 41 42 45 46 47 44 42 38 35 36 37 36 35 40 46 53 63 73 79 84 89 98 116 126 126 123 121 118 114 111 107 104
7 11 14 12 9 19 8 8 14 18 12 11 7 29 41 41 44 47 49 51 54 53 51 50 46 43 40 38 37 37 39 41 47 51 61 68 78 82 88 93 111 131 132 126 123 121 116 112 110
20 21 14 12 20 33 22 18 11 14 8 26 44 41 51 57 51 53 56 57 55 50 48 46 50 52 50 48 46 42 40 41 44 47 56 65 74 79 74 84 90 112 134 131 129 125 121 116 115
9 16 6 5 7 14 23 38 30 10 18 36 42 46 49 47 49 54 59 59 60 58 59 60 56 54 57 56 56 55 51 44 44 43 52 61 67 75 75 78 83 93 112 135 134 131 127 124 120
15 6 6 6 11 18 26 41 29 23 14 16 23 31 37 43 48 49 50 54 55 57 61 64 65 61 60 61 60 58 57 55 52 50 50 55 62 71 74 75 78 85 94 113 135 135 133 129 126
9 11 11 8 10 12 25 31 5 19 13 12 16 22 27 29 31 34 39 42 47 53 56 57 61 65 66 66 66 64 63 61 55 52 52 55 57 63 71 72 76 83 89 99 113 133 135 136 131
12 22 28 16 17 19 26 38 36 16 19 16 11 8 9 15 22 28 31 37 42 47 52 55 58 60 63 63 65 64 63 66 67 61 56 52 59 57 64 71 73 81 87 93 103 112 133 137 134
Wind_Direction_850mb
263 279 302 316 252 254 256 187 300 253 231 217 168 218 286 300 278 325 311 193 182 190 199 197 199 200 196 194 195 196 197 201 203 202 204 208 208 212 220 222 227 240 259 278 285 285 288 288 280
266 278 308 268 259 274 71 162 222 353 263 218 221 232 251 275 254 276 269 213 184 188 196 200 200 201 197 198 199 202 204 206 207 206 207 220 219 223 229 230 228 238 252 268 270 275 280 277 272
271 244 268 286 259 306 338 195 173 308 265 219 239 242 274 239 245 235 246 221 199 191 194 198 202 203 199 202 205 206 205 205 209 214 224 234 235 224 224 225 230 240 250 255 265 272 278 278 271
202 353 56 259 270 273 265 301 288 297 251 216 252 259 254 243 252 235 262 231 210 200 195 199 199 201 202 200 206 209 203 211 220 221 231 238 229 220 230 236 241 248 256 261 263 270 271 269 270
174 222 238 260 269 276 263 286 282 274 288 211 201 257 252 269 260 263 260 238 220 209 202 203 202 201 202 205 208 206 207 212 222 227 235 232 236 235 238 243 250 252 254 258 266 261 244 223 205
204 258 256 283 289 278 280 269 274 253 244 217 225 256 254 281 292 275 252 236 221 215 212 209 206 205 205 203 203 202 207 215 229 232 231 236 241 243 242 241 241 245 250 250 237 225 218 223 223
241 240 289 283 288 286 249 216 232 277 251 240 231 258 255 282 294 304 257 234 219 215 216 216 212 211 209 208 209 211 218 226 241 234 233 235 238 239 236 238 238 236 231 219 210 211 212 218 222
145 238 225 222 249 275 207 222 231 248 291 237 207 237 265 285 289 283 260 241 225 222 221 219 218 215 213 215 218 221 225 231 242 238 236 234 234 232 233 234 233 226 221 216 215 215 213 215 218
160 224 245 244 196 217 197 242 210 254 268 245 228 242 267 282 284 274 260 245 234 231 228 225 222 220 219 220 223 226 229 235 241 236 233 232 231 231 233 231 228 220 217 216 215 216 215 220 223
215 232 249 233 223 250 257 245 283 262 266 262 262 259 270 270 271 269 259 256 248 239 236 231 227 225 223 224 224 228 233 235 236 233 233 228 228 228 229 227 224 222 222 222 222 225 230 235 235
195 242 244 236 245 260 271 268 259 265 272 266 270 284 269 276 268 271 265 260 260 255 240 238 233 230 228 228 226 227 230 233 234 233 233 229 229 229 225 223 220 219 220 222 221 223 226 231 235
243 243 246 266 244 255 268 283 259 246 261 276 285 282 273 278 277 277 274 267 261 255 249 242 238 235 234 232 231 232 233 234 234 233 232 230 229 230 229 228 224 221 219 219 220 222 224 224 226
238 262 259 259 263 265 272 266 268 265 269 282 282 285 289 277 276 278 275 269 261 255 250 245 240 238 237 235 236 234 236 236 237 235 233 230 230 231 231 229 227 224 222 222 223 223 222 221 220
318 280 284 278 261 250 247 272 266 273 285 283 287 290 290 289 287 288 282 281 275 267 256 248 244 242 240 239 238 239 239 239 236 236 235 232 232 232 231 230 228 226 224 223 223 224 224 223 224
294 297 295 266 266 232 216 269 235 267 282 283 290 295 295 292 289 289 290 289 290 288 272 255 248 243 242 242 239 240 239 240 241 239 236 234 233 233 232 231 229 228 227 226 225 225 224 224 224
276 259 285 295 180 205 194 270 285 287 294 291 292 291 286 283 282 287 284 283 282 280 278 266 251 246 245 245 242 242 241 240 241 239 237 235 233 233 232 231 229 228 227 225 224 225 225 225 225
231 269 257 291 234 135 206 278 276 282 296 288 287 284 282 287 294 287 290 298 291 284 275 270 266 259 252 248 245 245 244 243 242 241 239 237 234 232 233 233 230 229 227 226 225 223 224 225 226
274 260 255 260 284 251 271 269 282 288 287 280 281 279 285 292 298 315 322 330 325 313 292 278 271 264 259 256 249 245 245 245 243 242 242 240 237 235 232 232 231 229 227 226 226 225 224 221 223
286 274 279 276 283 297 289 293 291 286 283 274 277 282 295 295 312 337 11 34 30 9 343 313 291 282 266 259 253 249 248 246 245 245 244 241 240 238 235 233 231 228 229 228 226 225 224 223 221
262 272 275 281 278 290 294 300 286 283 270 277 278 293 295 308 3 24 60 57 46 34 23 8 343 310 289 274 266 262 257 255 253 249 245 243 240 238 235 234 232 230 227 226 226 226 222 219 221
255 266 278 283 304 286 305 283 276 284 288 274 309 289 324 343 67 81 61 41 37 38 36 30 19 8 343 304 281 270 258 258 257 256 254 249 244 241 239 237 236 232 230 228 226 226 224 223 219
280 288 274 282 294 289 4 296 308 294 283 317 322 28 50 65 82 59 39 37 38 39 33 20 9 1 357 339 305 283 273 269 269 264 261 257 252 245 242 238 237 235 232 231 230 228 227 224 223
261 8 276 273 269 300 251 269 10 298 292 69 47 73 46 67 66 37 36 39 38 32 17 11 7 4 359 356 342 311 291 282 276 271 268 266 263 255 244 239 239 237 234 233 232 228 225 225 225
100 277 256 220 268 262 263 225 142 112 110 48 74 48 62 41 33 32 27 27 28 27 20 15 9 4 359 358 360 347 322 304 284 277 272 272 268 264 255 246 240 239 237 234 234 233 230 229 227
226 309 319 280 228 274 97 276 276 295 223 295 34 71 49 43 32 29 25 24 23 18 13 14 14 8 3 359 356 352 343 318 302 287 277 273 272 269 266 258 247 240 238 236 235 235 232 230 230
241 235 211 277 276 290 306 257 289 238 317 42 48 41 34 30 26 20 17 16 17 13 10 6 3 4 3 358 351 344 339 326 312 303 293 284 278 278 274 267 260 249 242 238 236 236 235 232 231
167 208 208 207 315 277 256 267 288 339 79 45 39 33 28 23 18 11 5 3 358 355 355 356 352 350 349 351 349 348 339 324 313 306 297 292 285 283 280 272 265 258 250 242 238 236 235 233 232
214 121 201 121 227 239 267 288 283 254 70 45 26 25 14 7 2 357 353 348 346 344 341 339 341 343 344 345 348 353 348 338 323 306 296 295 292 288 283 276 269 262 255 249 242 239 237 235 233
214 223 224 293 207 250 279 278 26 98 88 46 37 21 11 12 10 6 359 354 350 346 345 342 338 339 338 336 341 346 348 349 342 329 313 298 291 288 285 279 273 266 259 253 247 241 239 238 235
280 260 244 241 248 234 241 251 256 106 107 52 57 73 28 12 3 357 354 349 353 353 349 349 347 341 339 339 337 337 338 341 344 342 334 318 297 290 285 281 275 269 261 256 251 246 240 239 238